Location: ??????
(36.0418°N, 43.6351°E)
Time: 03:30:17
(UTC+00:00)

Cosmos 883 Rocket - Pass Details

Date: 27 June 2021
Orbit: 950 x 996 km, 83.0° (Epoch: 27 July)

Event Time Altitude Azimuth Distance (km) Brightness Sun altitude
Rises 23:05:57 0° 357° (N) 3,630 8.4 -24.5°
Reaches altitude 10° 23:08:30 10° 2° (N) 2,680 7.6 -24.3°
Maximum altitude 23:14:31 59° 81° (E) 1,086 4.8 -23.6°
Enters shadow 23:18:09 25° 153° (SSE) 1,833 5.6 -23.3°
